Retour au catalogue

DELTA 1 DEB

ActifSSO
NORAD 12165·DEBRIS·🇺🇸 United States

Lancé Mar 5, 1978 depuis Vandenberg Space Force Base

Loading…

Prochains Passages (prochaines 24 heures)

TLE

FraisSource: Space-Track

Époque: Sep 14, 2026, 13:10 UTC

1 12165U 78026E   26257.54899187  .00000052  00000-0  53577-4 0  9999
2 12165  98.9840 291.9623 0042723 322.6137 201.4457 14.11084449132431

Suivez DELTA 1 DEB en temps réel avec AllMySat

Download on the App Store